Location: Penton Mewsey
(51.2167°N, 1.5167°W)
Time: 03:06:41
(UTC+00:00)

SL-8 R/B - Pass Details

Date: 08 August 2020
Orbit: 657 x 667 km, 48.4° (Epoch: 22 September)

Event Time Altitude Azimuth Distance (km) Brightness Sun altitude
Rises 22:00:12 0° 274° (W) 3,005 7.6 -17.1°
Reaches altitude 10° 22:04:59 10° 232° (SW) 2,086 6.2 -17.5°
Maximum altitude 22:05:33 10° 225° (SW) 2,072 6.1 -17.6°
Drops below altitude 10° 22:06:07 10° 218° (SW) 2,084 6.1 -17.6°
Enters shadow 22:06:46 - 211° (SSW) 2,129 6.0 -17.7°
